"2022-03-07 00:01:00",2838910,2.479333,47.79996,0.9799235,0.1004302,2.71,0,1.302,49.20005,1.869014,0.108148,1.51,0,-999,0,-0.727,83.6,-0.709,-0.748,2.458,0.045,0,-0.884,13.58,2.513,102.9491,3.294,3.296,3.294,100,0,0,0,397,248,248
"2022-03-07 00:02:00",2838911,2.488,45.5331,1.857084,0.05659204,2.58,0,1.360667,50.39972,2.52432,0.09029334,1.52,0,-999,0,-0.78,83.6,-0.707,-0.766,2.617,0.118,0,-0.884,13.58,2.825,102.9377,3.294,3.297,3.293,100,0,0,0,397,248,248
"2022-03-07 00:03:00",2838912,2.537333,44.9333,1.878523,0.1005629,2.75,0,1.354,47.40035,2.775744,0.08875434,1.5,0,-999,0,-0.787,83.8,-0.708,-0.766,2.546,0.085,0,-0.884,13.58,2.7,102.9411,3.295,3.296,3.293,100,0,0,0,397,248,248
"2022-03-07 00:04:00",2838913,2.636,45.73338,1.289307,0.06042079,2.74,0,1.246667,48.93449,3.548406,0.1028699,1.44,0,-999,0,-0.8,84,-0.763,-0.784,2.7,0.079,0,-0.884,13.58,2.888,102.9393,3.296,3.298,3.294,100,0,0,0,397,248,248
"2022-03-07 00:05:00",2838914,2.542,47.40005,1.665486,0.06794114,2.68,0,1.276667,49.66652,1.849742,0.09610179,1.44,0,-999,0,-0.873,84,-0.805,-0.832,2.6,0.082,0,-0.884,13.58,2.7,102.9244,3.296,3.297,3.295,100,0,0,0,397,248,248
"2022-03-07 00:06:00",2838915,2.45,48.60005,0.8797377,0.08461677,2.58,0,1.208667,50.99926,2.502884,0.09576825,1.35,0,-999,0,-0.9,84.1,-0.849,-0.901,2.513,0.116,0,-0.884,13.59,2.7,102.9167,3.295,3.296,3.294,100,0,0,0,397,248,248
"2022-03-07 00:07:00",2838916,2.463333,45.73331,0.9289691,0.05094654,2.55,0,1.300667,47.00032,2.309172,0.0862915,1.51,0,-999,0,-0.933,84.1,-0.856,-0.918,2.583,0.072,0,-0.884,13.58,2.7,102.9364,3.296,3.297,3.295,100,0,0,0,397,248,248
"2022-03-07 00:08:00",2838917,2.474,46.86666,0.8056565,0.05401228,2.61,0,1.436667,46.59993,1.200146,0.05769651,1.54,0,-999,0,-0.947,83.9,-0.856,-0.918,2.579,0.066,0,-0.885,13.58,2.7,102.9283,3.295,3.296,3.293,100,0,0,0,397,248,248
"2022-03-07 00:09:00",2838918,2.380667,49.66672,1.135192,0.08528124,2.5,0,1.283333,51.86663,2.704433,0.121637,1.44,0,-999,0,-0.933,83.9,-0.874,-0.921,2.546,0.06,0,-0.901,13.59,2.638,102.9316,3.296,3.296,3.294,100,0,0,0,397,248,248
"2022-03-07 00:10:00",2838919,2.318,52.39983,1.624846,0.04338969,2.4,0,1.256667,59.27035,5.742321,0.0937135,1.43,0,-999,0,-1,84.4,-0.883,-0.937,2.458,0.055,0,-0.904,13.58,2.575,102.9213,3.294,3.296,3.292,100,0,0,0,397,248,248
"2022-03-07 00:11:00",2838920,2.211333,53.53339,1.857084,0.07931931,2.33,0,1.256,66.46648,2.276235,0.08056469,1.4,0,-999,0,-0.98,84.3,-0.837,-0.909,2.367,0.044,0,-0.904,13.58,2.45,102.9257,3.296,3.297,3.293,100,0,0,0,397,248,248
"2022-03-07 00:12:00",2838921,2.282667,53.26658,1.123407,0.04891714,2.38,0,1.278,63.66677,1.619234,0.08117471,1.47,0,-999,0,-0.9,84.4,-0.785,-0.849,2.304,0.075,0,-0.917,13.59,2.45,102.922,3.294,3.298,3.294,100,0,0,0,397,248,248
"2022-03-07 00:13:00",2838922,2.493333,56.4,0.7996832,0.07498142,2.61,0,1.303333,65.73405,3.335177,0.04908044,1.38,0,-999,0,-0.853,84.7,-0.726,-0.784,2.454,0.07,0,-0.927,13.59,2.575,102.9231,3.295,3.296,3.293,100,0,0,0,397,248,248
"2022-03-07 00:14:00",2838923,2.478,54.86666,0.8054135,0.06523798,2.59,0,1.143333,65.86687,2.917924,0.06828047,1.25,0,-999,0,-0.8,84.7,-0.666,-0.733,2.567,0.045,0,-0.927,13.58,2.638,102.9236,3.294,3.297,3.293,100,0,0,0,397,248,248
"2022-03-07 00:15:00",2838924,2.372667,53.46661,0.9567826,0.04434214,2.47,0,0.9533333,64.46642,2.578197,0.1159118,1.34,0,-999,0,-0.8,85.1,-0.663,-0.718,2.488,0.055,0,-0.939,13.59,2.575,102.9081,3.295,3.296,3.293,100,0,0,0,397,248,248
"2022-03-07 00:16:00",2838925,2.348,55.0666,1.339931,0.0447512,2.45,0,1.054,65.06657,2.593693,0.1027489,1.33,0,-999,0,-0.8,85,-0.666,-0.698,2.471,0.049,0,-0.947,13.58,2.575,102.9303,3.294,3.296,3.293,100,0,0,0,397,248,248
"2022-03-07 00:17:00",2838926,2.413333,55.33333,1.19262,0.05545773,2.52,0,1.166,67.13376,2.940478,0.04286412,1.27,0,-999,0,-0.8,84.5,-0.689,-0.715,2.458,0.05,0,-0.969,13.59,2.513,102.9296,3.296,3.296,3.293,100,0,0,0,397,248,248
"2022-03-07 00:18:00",2838927,2.391334,53.59988,1.083047,0.0382739,2.45,0,1.209333,65.73371,2.541686,0.06126082,1.3,0,-999,0,-0.8,84,-0.708,-0.712,2.513,0.072,0,-0.969,13.58,2.638,102.9269,3.297,3.298,3.294,100,0,0,0,397,248,248
"2022-03-07 00:19:00",2838928,2.342,52.93335,0.7712812,0.03208327,2.4,0,1.093333,61.86737,4.176896,0.09997776,1.26,0,-999,0,-0.8,83.8,-0.734,-0.728,2.371,0.07,0,-0.983,13.58,2.513,102.9263,3.296,3.298,3.295,100,0,0,0,397,248,248
"2022-03-07 00:20:00",2838929,2.234,54.13335,1.585883,0.0387814,2.3,0,1.012667,61.59948,3.136288,0.06049426,1.11,0,-999,0,-0.813,83.8,-0.739,-0.738,2.354,0.055,0,-0.994,13.58,2.45,102.9316,3.295,3.296,3.293,100,0,0,0,397,248,248
"2022-03-07 00:21:00",2838930,2.266,54.19826,3.165631,0.08623996,2.4,0,1.053333,59.3311,4.204434,0.1008409,1.22,0,-999,0,-0.82,83.9,-0.74,-0.763,2.479,0.094,0,-1.01,13.58,2.638,102.9337,3.295,3.296,3.294,100,0,0,0,397,248,248
"2022-03-07 00:22:00",2838931,2.3,50.1333,0.9567826,0.08246208,2.43,0,1.151333,58.66661,4.391266,0.1503714,1.44,0,-999,0,-0.807,84,-0.734,-0.758,2.379,0.068,0,-1.025,13.58,2.513,102.9271,3.294,3.296,3.293,100,0,0,0,397,248,248
"2022-03-07 00:23:00",2838932,2.208667,51.9333,1.651734,0.07889796,2.35,0,1.130667,69.13667,30.09572,0.424617,2.7,0,-999,0,-0.807,83.8,-0.739,-0.771,2.425,0.109,0,-1.037,13.58,2.638,102.9308,3.295,3.295,3.292,100,0,0,0,397,248,248
"2022-03-07 00:24:00",2838933,1.937333,61.80022,4.533849,0.1129287,2.11,0,0.9766666,93.08005,8.880177,0.06719787,1.08,0,-999,0,-0.9,84.4,-0.773,-0.794,2.208,0.082,0,-1.053,13.58,2.325,102.9312,3.296,3.296,3.293,100,0,0,0,397,248,248
"2022-03-07 00:25:00",2838934,1.753333,61.13382,3.499523,0.04011096,1.82,0,0.8226667,84.4025,12.62217,0.146035,0.99,0,-999,0,-0.973,84.7,-0.898,-0.87,1.95,0.046,0,-1.062,13.59,2.013,102.9351,3.297,3.297,3.294,100,0,0,0,397,248,248
"2022-03-07 00:26:00",2838935,1.85,53.86662,2.155985,0.09143303,2.05,0,0.864,70.84576,9.741583,0.05713142,0.95,0,-999,0,-1.027,84,-0.958,-0.941,1.925,0.091,0,-1.078,13.59,2.075,102.9445,3.295,3.297,3.295,100,0,0,0,397,248,248
"2022-03-07 00:27:00",2838936,1.868667,51.86661,1.359654,0.04745056,1.96,0,0.8066667,62.59958,2.332133,0.03681787,0.87,0,-999,0,-1.1,82.8,-1.004,-1.009,2.042,0.06,0,-1.096,13.58,2.138,102.9282,3.295,3.296,3.292,100,0,0,0,397,248,248
"2022-03-07 00:28:00",2838937,1.816,58.20039,2.135263,0.08723914,1.97,0,0.878,76.60098,3.220261,0.06284373,0.98,0,-999,0,-1.1,82.5,-1.035,-1.031,1.929,0.059,0,-1.114,13.58,2.013,102.9416,3.295,3.295,3.292,100,0,0,0,397,248,248
"2022-03-07 00:29:00",2838938,1.458,69.66738,2.936174,0.1160574,1.69,0,0.7253333,95.72664,8.148,0.08131146,0.87,0,-999,0,-1.187,83.2,-1.072,-1.077,1.738,0.14,0,-1.135,13.58,1.888,102.9253,3.297,3.297,3.294,100,0,0,0,397,248,248
"2022-03-07 00:30:00",2838939,1.332,74.73349,2.32279,0.06842999,1.42,0,0.6193333,95.41245,30.7611,0.06557101,0.73,0,-999,0,-1.213,83.4,-1.119,-1.122,1.471,0.099,0,-1.156,13.58,1.7,102.9454,3.295,3.297,3.293,100,0,0,0,397,248,248
"2022-03-07 00:31:00",2838940,1.236,71.93866,3.937046,0.03536475,1.3,0,0.4739999,84.70863,15.80581,0.04286413,0.54,0,-999,0,-1.3,83.3,-1.152,-1.16,1.342,0.07,0,-1.19,13.59,1.45,102.9359,3.293,3.296,3.292,100,0,0,0,397,248,248
"2022-03-07 00:32:00",2838941,1.364667,72.93343,3.234208,0.06907646,1.52,0,0.468,86.01811,10.60879,0.03745218,0.53,0,-999,0,-1.3,83.3,-1.154,-1.187,1.342,0.087,0,-1.213,13.58,1.45,102.9324,3.296,3.296,3.292,100,0,0,0,397,248,248
"2022-03-07 00:33:00",2838942,1.419333,64.12971,6.395315,0.06971049,1.54,0,0.378,67.26352,14.80829,0.03953058,0.44,0,-999,0,-1.3,83.2,-1.197,-1.206,1.533,0.067,0,-1.232,13.59,1.638,102.9278,3.296,3.297,3.294,100,0,0,0,397,248,248
"2022-03-07 00:34:00",2838943,1.52,55.60128,4.757331,0.1521403,1.86,0,0.24,29.25512,16.89734,0.04966555,0.32,0,-999,0,-1.327,82.9,-1.243,-1.259,1.508,0.066,0,-1.245,13.59,1.575,102.9268,3.296,3.297,3.293,100,0,0,0,397,248,248
"2022-03-07 00:35:00",2838944,1.844,58.80112,3.562148,0.1634543,2.09,0,0.202,68.83462,10.22377,0.07713192,0.31,0,-999,0,-1.407,82.8,-1.324,-1.32,1.704,0.101,0,-1.272,13.59,1.888,102.9383,3.294,3.297,3.294,100,0,0,0,397,248,248
"2022-03-07 00:36:00",2838945,1.456,67.20226,4.955,0.1891313,1.77,0,0.332,94.24313,12.89203,0.07054077,0.49,0,-999,0,-1.46,82.4,-1.347,-1.369,1.713,0.228,0,-1.293,13.59,2.263,102.933,3.294,3.295,3.293,100,0,0,0,397,248,248
"2022-03-07 00:37:00",2838946,1.64,68.1338,2.305309,0.08816651,1.79,0,0.1833333,80.97913,21.58018,0.05002222,0.27,0,-999,0,-1.5,82.5,-1.398,-1.42,1.496,0.077,0,-1.319,13.58,1.638,102.9403,3.294,3.295,3.292,100,0,0,0,397,248,248
"2022-03-07 00:38:00",2838947,1.810667,55.06437,3.604041,0.06526526,1.9,0,0.282,38.92838,9.493964,0.05588082,0.39,0,-999,0,-1.567,83.2,-1.485,-1.48,1.792,0.099,0,-1.338,13.59,1.95,102.9574,3.295,3.296,3.292,100,0,0,0,397,248,248
"2022-03-07 00:39:00",2838948,1.971333,54.1333,1.961743,0.1227391,2.13,0,0.3773333,24.79663,9.071741,0.05859085,0.51,0,-999,0,-1.6,83.3,-1.535,-1.539,1.871,0.042,0,-1.363,13.58,1.95,102.9517,3.293,3.295,3.292,100,0,0,0,397,248,248
"2022-03-07 00:40:00",2838949,2.02,52.66665,1.192456,0.06121002,2.12,0,0.3893334,10.81596,6.618605,0.06546924,0.55,0,-999,0,-1.613,83.7,-1.547,-1.55,1.821,0.09,0,-1.386,13.58,1.95,102.9438,3.295,3.296,3.293,100,0,0,0,397,248,248
"2022-03-07 00:41:00",2838950,2.021333,54.20001,0.9091658,0.04410085,2.1,0,0.4573334,357.8428,14.53981,0.079705,0.64,0,-999,0,-1.6,84.4,-1.511,-1.535,2.067,0.055,0,-1.411,13.58,2.138,102.945,3.293,3.296,3.292,100,0,0,0,397,248,248
"2022-03-07 00:42:00",2838951,1.87,54.00061,2.476085,0.09500878,2,0,0.3773333,358.2029,20.91528,0.1087791,0.53,0,-999,0,-1.6,84.9,-1.492,-1.525,2.033,0.059,0,-1.429,13.58,2.138,102.9329,3.294,3.294,3.292,100,0,0,0,397,248,248
"2022-03-07 00:43:00",2838952,1.704667,54.19948,1.832726,0.05596031,1.83,0,0.29,355.838,15.19834,0.06995237,0.43,0,-999,0,-1.6,85.1,-1.503,-1.517,1.825,0.056,0,-1.458,13.58,1.95,102.9374,3.292,3.294,3.292,100,0,0,0,397,248,248
"2022-03-07 00:44:00",2838953,1.625333,58.06628,1.947968,0.04842404,1.72,0,0.2226667,316.8124,27.05821,0.04057366,0.29,0,-999,0,-1.6,85.5,-1.529,-1.518,1.758,0.07,0,-1.483,13.58,1.888,102.9459,3.295,3.295,3.291,100,0,0,0,397,248,248
"2022-03-07 00:45:00",2838954,1.603333,65.93493,3.60415,0.04189933,1.68,0,0.2153333,306.0265,30.04009,0.05487764,0.33,0,-999,0,-1.62,85.9,-1.565,-1.534,1.688,0.069,0,-1.503,13.58,1.825,102.9362,3.293,3.293,3.291,100,0,0,0,397,248,248
"2022-03-07 00:46:00",2838955,1.658,66.93354,1.730688,0.04430199,1.79,0,0.21,293.542,18.37333,0.09681598,0.4,0,-999,0,-1.7,86,-1.63,-1.594,1.742,0.037,0,-1.531,13.59,1.825,102.9463,3.292,3.294,3.292,100,0,0,0,397,248,248
"2022-03-07 00:47:00",2838956,1.721333,66.20283,3.635403,0.0817204,1.83,0,0.1933333,301.4228,14.54832,0.05094659,0.28,0,-999,0,-1.7,85.9,-1.659,-1.619,1.779,0.058,0,-1.555,13.59,1.888,102.9449,3.293,3.294,3.291,100,0,0,0,397,248,248
"2022-03-07 00:48:00",2838957,1.462667,66.73337,1.651912,0.07505257,1.57,0,0.138,313.1454,25.78105,0.03448671,0.19,0,-999,0,-1.767,85.7,-1.714,-1.672,1.7,0.127,0,-1.582,13.59,1.888,102.9514,3.294,3.295,3.293,100,0,0,0,397,248,248
"2022-03-07 00:49:00",2838958,1.518667,64.00008,2.421925,0.04924315,1.59,0,0.2026666,13.67593,23.11719,0.4283062,1.8,0,-999,0,-1.8,85.4,-1.749,-1.708,1.533,0.044,0,-1.607,13.59,1.638,102.9571,3.291,3.294,3.291,100,0,0,0,397,248,248
"2022-03-07 00:50:00",2838959,1.621333,59.26672,1.289307,0.0830154,1.76,0,0.1486667,12.5764,27.10333,0.1058846,0.51,0,-999,0,-1.813,85.3,-1.794,-1.76,1.525,0.034,0,-1.635,13.58,1.575,102.9496,3.292,3.292,3.291,100,0,0,0,397,248,248
"2022-03-07 00:51:00",2838960,1.547333,60.26672,2.015413,0.1064247,1.69,0,0.2033333,325.6079,43.7803,0.07290785,0.33,0,-999,0,-1.847,85.2,-1.837,-1.804,1.383,0.066,0,-1.667,13.59,1.513,102.9439,3.292,3.294,3.292,100,0,0,0,397,248,248
"2022-03-07 00:52:00",2838961,1.359333,64.80014,1.938647,0.1377663,1.51,0,0.274,281.8034,6.772197,0.05314132,0.34,0,-999,0,-1.9,85.4,-1.869,-1.842,1.292,0.064,0,-1.691,13.58,1.388,102.9337,3.292,3.294,3.291,100,0,0,0,397,248,248
"2022-03-07 00:53:00",2838962,1.208,68.60268,3.962151,0.09239046,1.34,0,0.41,253.5855,9.859664,0.0311983,0.45,0,-999,0,-1.9,85.5,-1.877,-1.857,0.85,0.222,0,-1.723,13.58,1.2,102.9506,3.292,3.292,3.291,100,0,0,0,397,248,248
"2022-03-07 00:54:00",2838963,1.158666,73.93293,2.048042,0.137398,1.36,0,0.4266667,233.3986,2.387914,0.04825856,0.51,0,-999,0,-1.993,85.3,-1.944,-1.905,0.687,0.145,0,-1.753,13.59,0.95,102.9412,3.294,3.294,3.291,100,0,0,0,397,248,248
"2022-03-07 00:55:00",2838964,0.8719999,79.79972,3.850094,0.0756483,1,0,0.5126666,235.3325,2.573061,0.02999258,0.57,0,-999,0,-2,85,-1.965,-1.919,0.567,0.189,0,-1.776,13.58,0.825,102.9475,3.292,3.293,3.291,100,0,0,0,397,248,248
"2022-03-07 00:56:00",2838965,0.7133334,81.86086,6.486528,0.1229453,0.93,0,0.5526667,230.5339,5.700252,0.03193048,0.61,0,-999,0,-1.96,85.2,-1.955,-1.937,0.479,0.064,0,-1.808,13.58,0.575,102.9559,3.293,3.293,3.289,100,0,0,0,397,248,248
"2022-03-07 00:57:00",2838966,0.7106667,81.59064,9.238592,0.08338398,0.85,0,0.524,224.5328,2.963058,0.03555277,0.59,0,-999,0,-1.947,85.6,-1.949,-1.947,0.5,0.073,0,-1.838,13.58,0.638,102.9506,3.291,3.294,3.291,100,0,0,0,397,248,248
"2022-03-07 00:58:00",2838967,0.938,75.73353,3.854094,0.1175982,1.08,0,0.4873334,210.7208,22.73237,0.129947,0.61,0,-999,0,-1.987,86,-1.972,-1.965,0.679,0.078,0,-1.862,13.58,0.825,102.9538,3.292,3.292,3.29,100,0,0,0,397,248,248
"2022-03-07 00:59:00",2838968,1.023333,74.93351,2.8856,0.04093355,1.1,0,0.412,234.6309,6.718051,0.06503332,0.52,0,-999,0,-2,86.4,-1.956,-1.948,0.612,0.114,0,-1.893,13.58,0.825,102.9572,3.291,3.293,3.289,100,0,0,0,397,248,248
"2022-03-07 01:00:00",2838969,1.056667,78.79273,4.785421,0.1132352,1.22,0,0.5006666,238.5314,5.463045,0.07886417,0.6,0,-999,0,-2,86.9,-1.957,-1.922,0.775,0.207,0,-1.919,13.59,1.013,102.959,3.29,3.292,3.29,100,0,0,0,397,248,248
"2022-03-07 01:01:00",2838970,1.023333,79.26598,2.908437,0.07820202,1.15,0,0.4333333,233.9369,5.114026,0.0670986,0.54,0,-999,0,-2.073,87.3,-2.001,-1.928,0.808,0.103,0,-1.939,13.59,0.95,102.9446,3.291,3.292,3.291,100,0,0,0,397,248,248
"2022-03-07 01:02:00",2838971,1.076,75.54401,5.683768,0.1653199,1.37,0,0.288,229.4813,6.659529,0.07511771,0.45,0,-999,0,-2.1,87.4,-2.008,-1.936,0.771,0.16,0,-1.968,13.58,1.075,102.9398,3.289,3.292,3.289,100,0,0,0,397,248,248
"2022-03-07 01:03:00",2838972,1.208,79.06719,2.567878,0.069685,1.33,0,0.324,210.5201,9.2623,0.07561304,0.47,0,-999,0,-2.073,87.6,-2.018,-1.961,1.125,0.11,0,-1.997,13.58,1.325,102.9509,3.291,3.292,3.289,100,0,0,0,397,248,248
"2022-03-07 01:04:00",2838973,1.114,78.60342,5.285046,0.1923122,1.35,0,0.4213333,211.1642,40.19141,0.1570081,0.94,0,-999,0,-2.033,87.4,-2.009,-1.966,1.004,0.088,0,-2.022,13.58,1.138,102.949,3.29,3.291,3.289,100,0,0,0,397,248,248
"2022-03-07 01:05:00",2838974,0.948,79.87165,6.727507,0.07951519,1.1,0,0.4366666,209.4043,14.6258,0.1319427,0.62,0,-999,0,-2,87.3,-1.995,-1.959,0.825,0.155,0,-2.051,13.58,1.138,102.9452,3.291,3.291,3.288,100,0,0,0,397,248,248
"2022-03-07 01:06:00",2838975,0.7786667,78.73153,7.388878,0.1416505,1.02,0,0.5166667,230.8683,2.962529,0.05545769,0.64,0,-999,0,-2,87.5,-1.998,-1.97,0.517,0.103,0,-2.083,13.59,0.7,102.9399,3.291,3.291,3.289,100,0,0,0,397,248,248
"2022-03-07 01:07:00",2838976,0.7973334,63.84077,7.936491,0.1066125,0.94,0,0.258,229.7395,17.09302,0.07431466,0.42,0,-999,0,-2.007,87.5,-2.033,-2.006,0.625,0.105,0,-2.107,13.58,0.763,102.9369,3.292,3.292,3.288,100,0,0,0,397,248,248
"2022-03-07 01:08:00",2838977,0.8193333,55.40335,6.039742,0.1011577,1.04,0,0.2306667,238.4103,8.367108,0.04404039,0.31,0,-999,0,-2.087,87.9,-2.065,-2.027,0.383,0.111,0,-2.134,13.59,0.513,102.9449,3.289,3.292,3.289,100,0,0,0,397,248,248
"2022-03-07 01:09:00",2838978,0.5173333,68.04054,11.12482,0.1491963,0.85,0,0.4546667,245.9524,9.007627,0.09520971,0.68,0,-999,0,-2.1,87.9,-2.083,-2.039,0.2,0,0,-2.16,13.58,0.2,102.9453,3.289,3.291,3.288,100,0,0,0,397,248,248
"2022-03-07 01:10:00",2838979,0.53,49.58251,9.148952,0.128841,0.74,0,0.634,253.8348,7.647516,0.06301323,0.79,0,-999,0,-2.18,87.4,-2.115,-2.031,0.2,0,0,-2.189,13.59,0.2,102.9425,3.289,3.292,3.289,100,0,0,0,397,248,248
"2022-03-07 01:11:00",2838980,0.5393333,41.16756,29.9428,0.1366,0.81,0,0.5193332,250.9723,7.345262,0.08496796,0.61,0,-999,0,-2.2,87.2,-2.131,-2.057,0.308,0.117,0,-2.22,13.59,0.45,102.9406,3.289,3.291,3.289,100,0,0,0,397,248,248
"2022-03-07 01:12:00",2838981,0.2773333,40.46517,43.93677,0.06360993,0.4,0,0.6853334,244.1327,3.791448,0.06701908,0.77,0,-999,0,-2.2,86.9,-2.115,-2.072,0.283,0.087,0,-2.251,13.58,0.45,102.9388,3.289,3.289,3.287,100,0,0,0,397,248,248
"2022-03-07 01:13:00",2838982,0.2686667,281.2088,23.5067,0.1001244,0.53,0,0.6773333,242.13,4.630465,0.03767699,0.73,0,-999,0,-2.2,86.6,-2.074,-2.031,0.2,0,0,-2.276,13.58,0.2,102.9525,3.285,3.289,3.285,100,0,0,0,397,248,248
"2022-03-07 01:14:00",2838983,0.3666667,330.0844,41.82423,0.1307755,0.58,0,0.6433334,259.8727,6.029361,0.06599663,0.72,0,-999,0,-2.2,86.7,-2.058,-2.006,0.2,0,0,-2.308,13.59,0.2,102.9415,3.289,3.289,3.287,100,0,0,0,397,248,248
"2022-03-07 01:15:00",2838984,0.596,306.8062,19.71894,0.1280521,0.78,0,0.806,278.2692,8.172796,0.1064456,0.96,0,-999,0,-2.2,87.2,-2.083,-2.032,0.2,0,0,-2.339,13.58,0.2,102.9438,3.287,3.291,3.287,100,0,0,0,397,248,248
"2022-03-07 01:16:00",2838985,0.674,330.572,18.12888,0.1071323,0.86,0,0.9266667,300.4041,5.804745,0.05917959,1.01,0,-999,0,-2.2,87.1,-2.195,-2.116,0.2,0,0,-2.365,13.59,0.2,102.9503,3.289,3.289,3.285,100,0,0,0,397,248,248
"2022-03-07 01:17:00",2838986,0.7326666,333.6842,15.32273,0.1211867,0.95,0,0.8119999,302.7372,6.390372,0.1003461,1.01,0,-999,0,-2.287,86.7,-2.234,-2.194,0.238,0.102,0,-2.399,13.59,0.575,102.9397,3.285,3.289,3.285,100,0,0,0,397,248,248
"2022-03-07 01:18:00",2838987,0.8746668,328.6409,20.00186,0.2124419,1.31,0,0.8193334,292.7296,5.090302,0.1287616,1.03,0,-999,0,-2.3,87,-2.181,-2.197,0.854,0.091,0,-2.429,13.58,1.013,102.9424,3.289,3.289,3.282,100,0,0,0,397,248,248
"2022-03-07 01:19:00",2838988,0.8133333,319.3492,9.810627,0.08568677,1.01,0,0.7926666,291.0595,7.075278,0.1088404,0.99,0,-999,0,-2.293,87.6,-2.142,-2.196,1.058,0.09,0,-2.452,13.58,1.263,102.9462,3.287,3.29,3.287,100,0,0,0,397,248,248
"2022-03-07 01:20:00",2838989,1.017333,311.9932,5.487385,0.1312741,1.18,0,0.8493332,289.9753,10.23481,0.1776313,1.13,0,-999,0,-2.293,88.1,-2.181,-2.201,1.058,0.113,0,-2.479,13.59,1.263,102.9251,3.287,3.289,3.285,100,0,0,0,397,248,248
"2022-03-07 01:21:00",2838990,1.035333,307.0087,11.02791,0.167247,1.32,0,0.6953334,296.0711,4.593421,0.06631909,0.81,0,-999,0,-2.3,88.1,-2.219,-2.234,1.258,0.103,0,-2.504,13.58,1.513,102.9369,3.289,3.289,3.287,100,0,0,0,397,248,248
"2022-03-07 01:22:00",2838991,0.9746667,314.8607,12.171,0.1355417,1.22,0,0.6119999,283.4505,10.31116,0.1141461,0.8,0,-999,0,-2.3,88.1,-2.187,-2.238,1.271,0.082,0,-2.528,13.59,1.388,102.9457,3.285,3.288,3.285,100,0,0,0,397,248,248
"2022-03-07 01:23:00",2838992,0.93,300.7651,12.43238,0.1680079,1.23,0,0.5846666,292.5836,8.899982,0.08531252,0.81,0,-999,0,-2.3,88.3,-2.189,-2.234,1.046,0.195,0,-2.554,13.59,1.325,102.9309,3.287,3.288,3.284,100,0,0,0,397,248,248
"2022-03-07 01:24:00",2838993,0.9106666,295.6295,11.01093,0.09044087,1.03,0,0.6353332,287.6085,10.82436,0.06510161,0.74,0,-999,0,-2.3,88.4,-2.173,-2.207,1.129,0.123,0,-2.578,13.59,1.325,102.9283,3.287,3.288,3.285,100,0,0,0,397,248,248
"2022-03-07 01:25:00",2838994,1.009333,294.2643,4.402685,0.07987212,1.19,0,0.7673333,276.3264,7.371773,0.1029217,0.93,0,-999,0,-2.28,88.4,-2.062,-2.152,1.108,0.064,0,-2.6,13.58,1.263,102.9321,3.289,3.289,3.284,100,0,0,0,397,248,248
"2022-03-07 01:26:00",2838995,0.9639999,304.7313,4.550856,0.0754365,1.13,0,0.9046667,283.2756,6.067366,0.05702241,1.01,0,-999,0,-2.2,88,-2.026,-2.069,1.088,0.052,0,-2.612,13.58,1.2,102.9372,3.285,3.29,3.283,100,0,0,0,397,248,248
"2022-03-07 01:27:00",2838996,0.9926668,304.7348,5.467496,0.1040812,1.15,0,0.7973334,300.7325,6.005016,0.08441695,0.9,0,-999,0,-2.207,88.1,-2.137,-2.118,1.104,0.064,0,-2.636,13.58,1.2,102.9405,3.288,3.288,3.285,100,0,0,0,397,248,248
"2022-03-07 01:28:00",2838997,0.7786667,304.3517,11.17827,0.2741986,1.29,0,0.748,288.9956,14.64042,0.2014018,1.07,0,-999,0,-2.3,88.1,-2.223,-2.188,1.275,0.073,0,-2.655,13.58,1.388,102.9256,3.284,3.29,3.283,100,0,0,0,397,248,248
"2022-03-07 01:29:00",2838998,1.046,303.1925,5.122044,0.07301141,1.14,0,1.036667,277.9388,6.264411,0.165516,1.31,0,-999,0,-2.3,88.6,-2.193,-2.187,1.213,0.133,0,-2.673,13.58,1.45,102.9355,3.285,3.287,3.284,100,0,0,0,397,248,248
"2022-03-07 01:30:00",2838999,0.8926667,300.0047,7.318616,0.1001643,1.08,0,1.06,280.4661,4.630656,0.1855442,1.3,0,-999,0,-2.3,88.9,-2.217,-2.188,1.192,0.096,0,-2.696,13.59,1.325,102.9314,3.283,3.289,3.283,100,0,0,0,397,248,248
"2022-03-07 01:31:00",2839000,1.034667,316.0654,4.280169,0.08980473,1.22,0,0.64,292.6228,12.56507,0.1152967,0.91,0,-999,0,-2.313,88.4,-2.331,-2.276,1.25,0.076,0,-2.705,13.59,1.388,102.9304,3.285,3.287,3.283,100,0,0,0,397,248,248
"2022-03-07 01:32:00",2839001,1.032667,327.4001,2.893368,0.05157088,1.13,0,0.5113333,298.7516,12.53226,0.1259559,0.68,0,-999,0,-2.38,88.2,-2.344,-2.302,1.367,0.063,0,-2.73,13.59,1.513,102.933,3.284,3.287,3.283,100,0,0,0,397,248,248
"2022-03-07 01:33:00",2839002,1.08,325.3994,2.98386,0.0819756,1.24,0,0.5526667,289.537,13.47446,0.1235296,0.84,0,-999,0,-2.387,88.4,-2.271,-2.291,1.329,0.09,0,-2.747,13.59,1.45,102.9207,3.284,3.287,3.283,100,0,0,0,397,248,248
"2022-03-07 01:34:00",2839003,1.101333,325.7341,2.461443,0.1518274,1.37,0,0.4986667,313.5844,11.7639,0.0625957,0.63,0,-999,0,-2.4,88.6,-2.327,-2.321,1.383,0.042,0,-2.765,13.59,1.45,102.9271,3.287,3.287,3.287,100,0,0,0,397,248,248
"2022-03-07 01:35:00",2839004,1.206667,310.9289,7.083611,0.09227975,1.36,0,0.6133333,299.0743,8.908078,0.09177267,0.76,0,-999,0,-2.42,88.5,-2.436,-2.402,1.438,0.065,0,-2.784,13.59,1.513,102.9329,3.284,3.287,3.284,100,0,0,0,397,248,248
"2022-03-07 01:36:00",2839005,1.169334,301.3338,3.644971,0.08061983,1.35,0,0.7173334,271.378,8.11499,0.04296769,0.81,0,-999,0,-2.5,88.2,-2.514,-2.457,1.346,0.067,0,-2.793,13.58,1.45,102.9268,3.285,3.288,3.283,100,0,0,0,397,248,248
"2022-03-07 01:37:00",2839006,1.437333,305,2.7564,0.03974363,1.5,0,0.604,292.0472,14.27106,0.03241398,0.65,0,-999,0,-2.573,88.3,-2.58,-2.489,1.358,0.064,0,-2.814,13.59,1.45,102.9283,3.284,3.284,3.283,100,0,0,0,397,248,248
"2022-03-07 01:38:00",2839007,1.449333,318.2127,6.322641,0.07478561,1.57,0,0.5786667,320.1977,7.281123,0.07292614,0.71,0,-999,0,-2.64,87.9,-2.683,-2.591,1.513,0.046,0,-2.829,13.59,1.575,102.9305,3.282,3.287,3.282,100,0,0,0,397,248,248
"2022-03-07 01:39:00",2839008,1.422,324.0666,1.651912,0.04915283,1.52,0,0.626,318.0851,9.59675,0.1343031,0.86,0,-999,0,-2.7,87.6,-2.74,-2.66,1.554,0.075,0,-2.865,13.59,1.7,102.9356,3.283,3.285,3.283,100,0,0,0,397,248,248
"2022-03-07 01:40:00",2839009,1.466667,318.7332,2.593693,0.06639947,1.57,0,1.002667,307.2659,2.619029,0.1009598,1.15,0,-999,0,-2.767,87.5,-2.81,-2.728,1.658,0.054,0,-2.865,13.58,1.763,102.9244,3.28,3.283,3.28,100,0,0,0,397,248,248
"2022-03-07 01:41:00",2839010,1.468667,321.667,2.843758,0.07872878,1.61,0,0.698,313.3324,5.734042,0.08840815,0.9,0,-999,0,-2.847,87.8,-2.894,-2.802,1.625,0.041,0,-2.871,13.59,1.7,102.9206,3.284,3.284,3.281,100,0,0,0,397,248,248
"2022-03-07 01:42:00",2839011,1.558667,323.9334,1.982101,0.04828618,1.63,0,0.7853333,308.2696,4.751147,0.09142331,0.94,0,-999,0,-2.927,88,-3.002,-2.902,1.638,0.046,0,-2.892,13.59,1.763,102.9226,3.283,3.284,3.283,100,0,0,0,397,248,248
"2022-03-07 01:43:00",2839012,1.468,320.7331,2.541802,0.1173144,1.62,0,0.8626665,308.0659,16.71502,0.06806532,0.94,0,-999,0,-3.007,88.1,-3.078,-2.992,1.713,0.052,0,-2.912,13.59,1.825,102.9363,3.285,3.285,3.283,100,0,0,0,397,248,248
"2022-03-07 01:44:00",2839013,1.381333,324.5996,2.153803,0.06701907,1.48,0,0.7873333,306.8644,3.072271,0.03957553,0.87,0,-999,0,-3.1,88.2,-3.13,-3.063,1.608,0.055,0,-2.912,13.58,1.7,102.9361,3.284,3.287,3.284,100,0,0,0,397,248,248